Regional Weather Roundup
Issued by NWS Charleston, WV

Home | Current Version | Previous Version | Text Only | Print | Product List | Glossary Off
Versions: 1 2 3 4 5 6 7 8 9 10 11 12 13 14 15 16 17 18 19 20 21 22 23 24 25 26 27 28 29 30 31 32 33 34 35 36 37 38 39 40 41 42 43 44 45 46 47 48 49 50

000
ASUS41 KRLX 090210
RWRRLX
West Virginia Regional Weather Roundup
National Weather Service Charleston WV
900 PM EST MON FEB 08 2016

Note: "fair" indicates few or no clouds below 12,000 feet with no
significant weather and/or obstructions to visibility.

WVZ003-090300-
Northern Panhandle of West Virginia

CITY           SKY/WX    TMP DP  RH WIND       PRES   REMARKS
WHEELING       MOCLDY    33  30  88 SW5       29.60F
$$

WVZ009-090300-
Northwest West Virginia

CITY           SKY/WX    TMP DP  RH WIND       PRES   REMARKS
PARKERSBURG    LGT SNOW  33  31  92 SW5       29.66F FOG
$$

WVZ006-090300-
Western West Virginia

CITY           SKY/WX    TMP DP  RH WIND       PRES   REMARKS
HUNTINGTON     MOCLDY    35  29  78 SW8       29.68S
$$

WVZ015-090300-
West Central West Virginia

CITY           SKY/WX    TMP DP  RH WIND       PRES   REMARKS
CHARLESTON     CLOUDY    34  30  85 SW7       29.67S
$$

WVZ022-031-090300-
North Central West Virginia

CITY           SKY/WX    TMP DP  RH WIND       PRES   REMARKS
CLARKSBURG     LGT RAIN  34  32  92 SW3       29.62S
MORGANTOWN     CLOUDY    34  30  85 CALM      29.62F
$$

WVZ025-035-042-045-090300-
Southern West Virginia

CITY           SKY/WX    TMP DP  RH WIND       PRES   REMARKS
BECKLEY          N/A     29  24  82 W8        29.62F
LOGAN            N/A     32  28  86 W7        29.65F
BLUEFIELD      CLOUDY    28  25  88 W6        29.62F
LEWISBURG      CLOUDY    33  30  86 SW3       29.63S
$$

WVZ047-090300-
Northern Mountains of West Virginia

CITY           SKY/WX    TMP DP  RH WIND       PRES   REMARKS
ELKINS         CLOUDY    33  28  81 CALM      29.61S
$$

WVZ052-090300-
Eastern Panhandle of West Virginia

CITY           SKY/WX    TMP DP  RH WIND       PRES   REMARKS
MARTINSBURG    CLOUDY    40  28  62 SE7       29.64F
PETERSBURG     MIX PCPN  37  32  84 CALM      29.63S
$$



USA.gov is the U.S. government's official web portal to all federal, state and local government web resources and services.